This is the latest recevied weather packets stored in our database for station/object AF9W-5. If no packets are shown the sender has not sent any weather packets the latest 10 day(s).
| Time | Temp. | Humidity | Pressure | Rain* | Wind** | Luminosity | Snow |
|---|---|---|---|---|---|---|---|
| 1777594612 | 27.78° C | 16% | 1005.8 hPa | 0 mm | - | 84 W/m² | - |
| 1777594309 | 27.78° C | 17% | 1005.4 hPa | 0 mm | - | 88 W/m² | - |
| 1777594005 | 27.78° C | 16% | 1005.4 hPa | 0 mm | - | 90 W/m² | - |
| 1777593701 | 27.78° C | 16% | 1005.6 hPa | 0 mm | - | 101 W/m² | - |
| 1777593397 | 28.33° C | 16% | 1005.6 hPa | 0 mm | - | 100 W/m² | - |
| 1777593096 | 28.33° C | 16% | 1005.5 hPa | 0 mm | - | 104 W/m² | - |
| 1777592795 | 28.33° C | 16% | 1005.5 hPa | 0 mm | - | 117 W/m² | - |
| 1777592491 | 28.89° C | 16% | 1005.6 hPa | 0 mm | - | 156 W/m² | - |
| 1777592187 | 28.33° C | 16% | 1005.4 hPa | 0 mm | - | 178 W/m² | - |
| 1777591883 | 28.89° C | 16% | 1005.5 hPa | 0 mm | - | 200 W/m² | - |
| 1777591580 | 29.44° C | 15% | 1005.8 hPa | 0 mm | - | 215 W/m² | - |
| 1777591276 | 29.44° C | 15% | 1005.6 hPa | 0 mm | - | 211 W/m² | - |
| 1777590971 | 30° C | 15% | 1005.7 hPa | 0 mm | - | 228 W/m² | - |
| 1777590667 | 29.44° C | 16% | 1005.9 hPa | 0 mm | - | 225 W/m² | - |
| 1777590363 | 29.44° C | 16% | 1005.8 hPa | 0 mm | - | 297 W/m² | - |
| 1777590061 | 30° C | 16% | 1005.9 hPa | 0 mm | - | 259 W/m² | - |
| 1777589757 | 30° C | 17% | 1006 hPa | 0 mm | - | 256 W/m² | - |
| 1777589456 | 30° C | 16% | 1006 hPa | 0 mm | - | 535 W/m² | - |
| 1777589152 | 30° C | 16% | 1006 hPa | 0 mm | - | 648 W/m² | - |
| 1777588848 | 29.44° C | 17% | 1006.2 hPa | 0 mm | - | 602 W/m² | - |
| 1777588544 | 30° C | 17% | 1006.3 hPa | 0 mm | - | 358 W/m² | - |
| 1777588240 | 30° C | 16% | 1006.2 hPa | 0 mm | - | 403 W/m² | - |
| 1777587934 | 30.56° C | 17% | 1006.4 hPa | 0 mm | - | 549 W/m² | - |
| 1777587631 | 30° C | 16% | 1006.5 hPa | 0 mm | - | 690 W/m² | - |
| 1777587326 | 28.89° C | 17% | 1006.6 hPa | 0 mm | - | 678 W/m² | - |
* Rain latest hour (hover to see other rain measurements)
** Current wind speed in m/s (hover to see current wind gust speed)